Location: Hopville
(44.8032°N, 123.1329°W)
Time: 04:36:39
(UTC+00:00)

BREEZE-M DEB (TANK) - Pass Details

Date: 24 January 2021
Orbit: 303 x 16780 km, 49.5° (Epoch: 26 February)

Event Time Altitude Azimuth Distance (km) Brightness Sun altitude
Exits shadow 14:31:10 13° 248° (WSW) 1,532 4.1 -12.2°
Maximum altitude 14:34:03 86° 335° (NNW) 808 3.1 -11.7°
Drops below altitude 10° 14:44:50 10° 67° (ENE) 5,341 8.1 -9.9°
Sets 14:53:05 0° 69° (ENE) 8,569 9.2 -8.5°
